Regional Weather Roundup
Issued by NWS

Home | Current Version | Previous Version | Graphics & Text | Print | Product List | Glossary On
Versions: 1 2 3 4 5 6 7 8 9 10 11 12 13 14 15 16 17 18 19 20 21 22 23 24 25 26 27 28 29 30 31 32 33 34 35 36 37 38 39 40 41 42 43 44 45 46 47 48 49 50
000
ASUS43 KOAX 211802
RWRNE

WEATHER ROUNDUP FOR NEBRASKA
NATIONAL WEATHER SERVICE OMAHA NE
100 PM CDT THU SEP 21 2017

NOTES: SATELLITE DATA IS BEING USED TO AUGMENT CLOUD COVER ABOVE
       12000 FEET.
       "FAIR" INDICATES FEW OR NO CLOUDS BELOW 12,000 FEET WITH NO
       SIGNIFICANT WEATHER AND/OR OBSTRUCTIONS TO VISIBILITY.


NEZ001>004-019>022-054>056-211900-
NEBRASKA PANHANDLE

CITY           SKY/WX    TMP DP  RH WIND       PRES   REMARKS
SCOTTSBLUFF    SUNNY     74  44  34 SE8       29.71F
6HR MIN TEMP:  46; 6HR MAX TEMP:  74;

ALLIANCE       SUNNY     76  45  33 S9        29.71F
6HR MIN TEMP:  48; 6HR MAX TEMP:  76;

CHADRON        SUNNY     85  38  18 SW13      29.65F
6HR MIN TEMP:  58; 6HR MAX TEMP:  85;

GORDON         FAIR      78  47  34 S13       29.70F
6HR MIN TEMP:  57; 6HR MAX TEMP:  78;

KIMBALL        SUNNY     83  36  18 SW7       29.76F
SIDNEY         SUNNY     82  36  19 VRB6      29.75S
6HR MIN TEMP:  43; 6HR MAX TEMP:  83;

$$

NEZ057>060-069>072-079>082-211900-
SOUTHWEST NEBRASKA

CITY           SKY/WX    TMP DP  RH WIND       PRES   REMARKS
NORTH PLATTE   SUNNY     83  53  35 S13       29.71F
6HR MIN TEMP:  48; 6HR MAX TEMP:  83;

IMPERIAL       SUNNY     83  38  20 SE13      29.73F
6HR MIN TEMP:  47; 6HR MAX TEMP:  84;

LEXINGTON      SUNNY     86  51  30 S20G25    29.74F
MCCOOK         SUNNY     87  46  24 S12G20    29.72F
6HR MIN TEMP:  48; 6HR MAX TEMP:  88;

OGALLALA       SUNNY     83  42  23 S9        29.72F
$$

NEZ005>010-023>029-035>040-094-211900-
NORTH CENTRAL NEBRASKA

CITY           SKY/WX    TMP DP  RH WIND       PRES   REMARKS
VALENTINE      SUNNY     82  54  37 S23G29    29.69F
6HR MIN TEMP:  56; 6HR MAX TEMP:  82;

AINSWORTH      SUNNY     81  57  43 S21       29.70F
BROKEN BOW     SUNNY     85  54  34 S17G28    29.73F
6HR MIN TEMP:  46; 6HR MAX TEMP:  85;

O`NEILL        SUNNY     81  64  57 S16       29.73F
ORD            SUNNY     82  56  40 SE13G24   29.72F
6HR MIN TEMP:  46; 6HR MAX TEMP:  82;

$$

NEZ041-046>049-061>064-073>077-083>087-211900-
SOUTH CENTRAL NEBRASKA

CITY           SKY/WX    TMP DP  RH WIND       PRES   REMARKS
GRAND ISLAND   SUNNY     86  63  45 SE16      29.76F
6HR MIN TEMP:  51; 6HR MAX TEMP:  86;

AURORA         SUNNY     86  63  46 S14       29.77F
HASTINGS       SUNNY     88  60  38 S14G24    29.77F
6HR MIN TEMP:  53; 6HR MAX TEMP:  88;

HEBRON         SUNNY     89  71  54 SE17      29.78F HX  94
HOLDREGE       SUNNY     85  51  30 S20G26    29.75F
KEARNEY        SUNNY     87  58  37 S18G24    29.75F
YORK           SUNNY     86  66  51 S15G21    29.78F
$$

NEZ011>018-030>034-042>045-211900-
NORTHEAST NEBRASKA

CITY           SKY/WX    TMP DP  RH WIND       PRES   REMARKS
NORFOLK        SUNNY     83  69  62 S15       29.75F
6HR MIN TEMP:  57; 6HR MAX TEMP:  83;

ALBION         SUNNY     81  69  66 S15       29.77F
BLAIR          PTSUNNY   85  73  65 S14       29.81F HX  92
COLUMBUS         N/A     88  68  51 S15G21    29.77F HX  91
FREMONT        MOSUNNY   85  71  61 SE15G23   29.80F HX  90
TEKAMAH        MOSUNNY   86  71  60 S15G25    29.79F HX  91
6HR MIN TEMP:  59; 6HR MAX TEMP:  86;

WAYNE          MOSUNNY   80  75  83 S20       29.78F
$$

NEZ050>053-065>068-078-088>093-211900-
SOUTHEAST NEBRASKA

CITY           SKY/WX    TMP DP  RH WIND       PRES   REMARKS
LINCOLN        SUNNY     90  71  53 S18       29.79F HX  96
6HR MIN TEMP:  61; 6HR MAX TEMP:  90;

OMAHA EPPLEY   PTSUNNY   87  72  60 SE20      29.80F HX  93
6HR MIN TEMP:  68; 6HR MAX TEMP:  87;

BEATRICE       SUNNY     88  72  58 S16G22    29.80F HX  95
FALLS CITY     MOSUNNY   88  72  58 S14G22    29.84F HX  94
6HR MIN TEMP:  70; 6HR MAX TEMP:  88;

NEBRASKA CITY  MOSUNNY   88  74  64 S18G24    29.83F HX  97
PLATTSMOUTH    SUNNY     87  73  62 SE20G25   29.82F HX  95
$$

NEZ044-045-051>053-067-211900-
OMAHA AREA

CITY           SKY/WX    TMP DP  RH WIND       PRES   REMARKS
OMAHA EPPLEY   PTSUNNY   87  72  60 SE20      29.80F HX  93
6HR MIN TEMP:  68; 6HR MAX TEMP:  87;

BLAIR          PTSUNNY   85  73  65 S14       29.81F HX  92
FREMONT        MOSUNNY   85  71  61 SE15G23   29.80F HX  90
MILLARD        PTSUNNY   88  75  65 SE15      29.80F HX  98
OFFUTT AFB     MOSUNNY   88  73  61 SE16G24   29.80F HX  95
PLATTSMOUTH    SUNNY     87  73  62 SE20G25   29.82F HX  95
WAHOO          FAIR      88  70  55 SE17G24   29.80S HX  93
$$



USA.gov is the U.S. government's official web portal to all federal, state and local government web resources and services.